529  
ASUS44 KLCH 222010  
RWRLCH  
REGIONAL WEATHER ROUNDUP  
NATIONAL WEATHER SERVICE LAKE CHARLES LA  
300 PM CDT MON JUL 22 2019  
 
NOTE: "FAIR" INDICATES FEW OR NO CLOUDS BELOW 12,000 FEET WITH NO  
SIGNIFICANT WEATHER AND/OR S TO VISIBILITY
.  
 
ACROSS SOUTHEAST TEXAS  
 
CITY SKY/WX TMP DP RH WIND PRES REMARKS
 
BEAUMONT FAIR 85 76 74 W8 29.97F  
BEAUMONT CITY NOT AVBL  
ORANGE FAIR 84 78 83 S6 30.00R THUNDER  
JASPER PTSUNNY 92 75 57 CALM 29.98S HX 102  

 
 
ACROSS CENTRAL LOUISIANA  
 
CITY SKY/WX TMP DP RH WIND PRES REMARKS
 
LEESVILLE PTSUNNY 86 74 68 SW5 29.95F  
FULLERTON FAIR 82 76 81 CALM 29.94F THUNDER  
ALEXANDRIA INT CLOUDY 87 77 72 SW5 29.92F  
ESLER FIELD FAIR 78 73 84 CALM 29.94F THUNDER  
DERIDDER FAIR 80 79 95 CALM 29.99F FOG  
OAKDALE TSTM 79 73 83 N7 29.97R  
OPELOUSAS FAIR 88 74 63 CALM 29.96F  

 
 
ACROSS SOUTHWEST AND SOUTH CENTRAL LOUISIANA  
 
CITY SKY/WX TMP DP RH WIND PRES REMARKS
 
DEQUINCY FAIR 76 74 95 SE3 29.99F  
SULPHUR FAIR 83 77 83 CALM 29.99S  
LAKE CHARLES PTSUNNY 83 77 82 SW3 29.98F  
CHENNAULT INT MOSUNNY 79 75 89 CALM 29.99S  
CAMERON PHI NOT AVBL  
GRAND CHENIER NOT AVBL  
JENNINGS LGT RAIN 75 72 91 CALM 29.98F  
LAFAYETTE LGT RAIN 79 77 94 S3 29.98F  
NEW IBERIA LGT RAIN 79 75 87 CALM 29.99F  
ABBEVILLE TSTM 73 73 100 E5 29.99S  
PATTERSON CLOUDY 81 76 84 CALM 30.00F  
SALT POINT N/A 84 74 71 MISG 29.97F  

 
 
SELECTED SITES ACROSS THE REGION  
 
CITY SKY/WX TMP DP RH WIND PRES REMARKS
 
HOUSTON BUSH PTSUNNY 93 70 46 CALM 29.95F  
HOUSTON HOBBY LGT RAIN 87 75 67 S7 29.97S  
GALVESTON FAIR 87 73 62 S12 30.00F  
COLLEGE STAT SUNNY 95 68 41 VRB3 29.96F  
CONROE SUNNY 89 74 60 W5 29.97F  
HUNTSVILLE MOSUNNY 95 70 44 SW5 29.96F HX 101  
LUFKIN MOSUNNY 90 72 55 NW7 29.95F  
SHREVEPORT MOSUNNY 95 72 47 NW13 29.91F HX 103  
MONROE PTSUNNY 92 78 63 NE3 29.92F HX 107  
NATCHEZ MS FAIR 89 75 63 S5 29.96F  
BATON ROUGE PTSUNNY 89 73 59 VRB3 29.95F  
N.O. INTL ARPT PTSUNNY 79 75 87 S7 29.97F  
SLIDELL TSTM 82 74 76 N9 29.96S  

 
 
MARINE REPORTS  
 
STATION/POSITION TIME SKY/WX TEMP WIND PRES VSBY
 
AIR SEA DIR/SP/G  
(UTC) (F) (DEG/KT/KT) (MB) (MI)  
BUOY 30 S HIGH I 1950 83 190/ 12/ 14 1016.4F  
WVE H/P(F/S)= 2/ 5  
 
SEA RIM ST PARK NOT AVBL  
PORT ARTHUR 1930 83 86 200/ 8/ 10 1015.4F  
SABINE PASS N 1930 83 87 210/ 5/ 8 1016.9F  
TEXAS POINT 1930 82 86 220/ 8/ 11 1013.7F  
CALCASIEU PASS 1930 81 85 240/ 7/ 9 1014.6F  
LK CHARLES BEACH 1930 78 84 1015.4R  
MARSH ISLAND 1900 77 N/A  
FRESH WATER LOCK NOT AVBL  
AMERADA PASS 1930 78 84 290/ 3/ 5 1015.8F  

 
 
 
CLICK HERE TO GO TO PREVIOUS BULLETINS.

The Nexlab LA Page
The Nexlab TX Page Main Text Page